<?xml version="1.0" encoding="UTF-8" standalone="no" ?>
<gpx xmlns="http://www.topografix.com/GPX/1/1" xmlns:xsi="http://www.w3.org/2001/XMLSchema-instance" xsi:schemaLocation="http://www.topografix.com/GPX/1/1 http://www.topografix.com/GPX/1/1/gpx.xsd" version="1.1" creator="VisuGPX - https://www.visugpx.com">
  <metadata>
    <name>Etape 3 - Variante pat Thorame</name>
  </metadata>
  <trk>
    <name><![CDATA[Etape 3 - variante Thorame à Castellane]]></name>
    <trkseg>
      <trkpt lat="43.93963" lon="6.50352">
        <ele>1102.6</ele>
        <time>2020-04-09T08:34:10Z</time>
      </trkpt>
      <trkpt lat="43.94114" lon="6.50317">
        <ele>1109.9</ele>
        <time>2020-04-09T08:34:10Z</time>
      </trkpt>
      <trkpt lat="43.9417" lon="6.50266">
        <ele>1111.3</ele>
        <time>2020-04-09T08:34:10Z</time>
      </trkpt>
      <trkpt lat="43.94222" lon="6.50236">
        <ele>1107.6</ele>
        <time>2020-04-09T08:34:10Z</time>
      </trkpt>
      <trkpt lat="43.94327" lon="6.50124">
        <ele>1095.6</ele>
        <time>2020-04-09T08:34:10Z</time>
      </trkpt>
      <trkpt lat="43.94432" lon="6.50197">
        <ele>1113.8</ele>
        <time>2020-04-09T08:34:10Z</time>
      </trkpt>
      <trkpt lat="43.94485" lon="6.5021">
        <ele>1116.1</ele>
        <time>2020-04-09T08:34:10Z</time>
      </trkpt>
      <trkpt lat="43.94593" lon="6.50201">
        <ele>1124.9</ele>
        <time>2020-04-09T08:34:10Z</time>
      </trkpt>
      <trkpt lat="43.94646" lon="6.50219">
        <ele>1130.8</ele>
        <time>2020-04-09T08:34:10Z</time>
      </trkpt>
      <trkpt lat="43.94754" lon="6.50227">
        <ele>1151</ele>
        <time>2020-04-09T08:34:10Z</time>
      </trkpt>
      <trkpt lat="43.94806" lon="6.5021">
        <ele>1153.6</ele>
        <time>2020-04-09T08:34:10Z</time>
      </trkpt>
      <trkpt lat="43.94942" lon="6.50077">
        <ele>1169.4</ele>
        <time>2020-04-09T08:34:10Z</time>
      </trkpt>
      <trkpt lat="43.94995" lon="6.5006">
        <ele>1164.1</ele>
        <time>2020-04-09T08:34:10Z</time>
      </trkpt>
      <trkpt lat="43.95047" lon="6.50077">
        <ele>1151.3</ele>
        <time>2020-04-09T08:34:10Z</time>
      </trkpt>
      <trkpt lat="43.951" lon="6.5006">
        <ele>1138</ele>
        <time>2020-04-09T08:34:10Z</time>
      </trkpt>
      <trkpt lat="43.95152" lon="6.50017">
        <ele>1138.8</ele>
        <time>2020-04-09T08:34:10Z</time>
      </trkpt>
      <trkpt lat="43.9526" lon="6.49991">
        <ele>1110.8</ele>
        <time>2020-04-09T08:34:10Z</time>
      </trkpt>
      <trkpt lat="43.95313" lon="6.4997">
        <ele>1105.9</ele>
        <time>2020-04-09T08:34:10Z</time>
      </trkpt>
      <trkpt lat="43.95365" lon="6.49931">
        <ele>1093.2</ele>
        <time>2020-04-09T08:34:10Z</time>
      </trkpt>
      <trkpt lat="43.95739" lon="6.49781">
        <ele>1047.4</ele>
        <time>2020-04-09T08:34:10Z</time>
      </trkpt>
      <trkpt lat="43.95792" lon="6.49734">
        <ele>1049.2</ele>
        <time>2020-04-09T08:34:10Z</time>
      </trkpt>
      <trkpt lat="43.95835" lon="6.49661">
        <ele>1047.5</ele>
        <time>2020-04-09T08:34:10Z</time>
      </trkpt>
      <trkpt lat="43.95891" lon="6.49596">
        <ele>1039.8</ele>
        <time>2020-04-09T08:34:10Z</time>
      </trkpt>
      <trkpt lat="43.95943" lon="6.49596">
        <ele>1015.1</ele>
        <time>2020-04-09T08:34:10Z</time>
      </trkpt>
      <trkpt lat="43.95996" lon="6.49583">
        <ele>999.7</ele>
        <time>2020-04-09T08:34:10Z</time>
      </trkpt>
      <trkpt lat="43.96036" lon="6.49511">
        <ele>986.6</ele>
        <time>2020-04-09T08:34:10Z</time>
      </trkpt>
      <trkpt lat="43.96082" lon="6.4939">
        <ele>993.5</ele>
        <time>2020-04-09T08:34:10Z</time>
      </trkpt>
      <trkpt lat="43.96135" lon="6.49378">
        <ele>996.4</ele>
        <time>2020-04-09T08:34:10Z</time>
      </trkpt>
      <trkpt lat="43.96187" lon="6.49408">
        <ele>1009.5</ele>
        <time>2020-04-09T08:34:10Z</time>
      </trkpt>
      <trkpt lat="43.9619" lon="6.49481">
        <ele>1010.6</ele>
        <time>2020-04-09T08:34:10Z</time>
      </trkpt>
      <trkpt lat="43.96178" lon="6.49553">
        <ele>1007.6</ele>
        <time>2020-04-09T08:34:10Z</time>
      </trkpt>
      <trkpt lat="43.96215" lon="6.49631">
        <ele>1009.2</ele>
        <time>2020-04-09T08:34:10Z</time>
      </trkpt>
      <trkpt lat="43.96267" lon="6.49579">
        <ele>1046.1</ele>
        <time>2020-04-09T08:34:10Z</time>
      </trkpt>
      <trkpt lat="43.96289" lon="6.49652">
        <ele>1035.9</ele>
        <time>2020-04-09T08:34:10Z</time>
      </trkpt>
      <trkpt lat="43.96342" lon="6.49622">
        <ele>1048.2</ele>
        <time>2020-04-09T08:34:10Z</time>
      </trkpt>
      <trkpt lat="43.96394" lon="6.49575">
        <ele>1064</ele>
        <time>2020-04-09T08:34:10Z</time>
      </trkpt>
      <trkpt lat="43.96447" lon="6.49605">
        <ele>1052.8</ele>
        <time>2020-04-09T08:34:10Z</time>
      </trkpt>
      <trkpt lat="43.96499" lon="6.49656">
        <ele>1045.6</ele>
        <time>2020-04-09T08:34:10Z</time>
      </trkpt>
      <trkpt lat="43.96607" lon="6.49699">
        <ele>1058.4</ele>
        <time>2020-04-09T08:34:10Z</time>
      </trkpt>
      <trkpt lat="43.9666" lon="6.49742">
        <ele>1054.6</ele>
        <time>2020-04-09T08:34:10Z</time>
      </trkpt>
      <trkpt lat="43.96706" lon="6.4982">
        <ele>1049.1</ele>
        <time>2020-04-09T08:34:10Z</time>
      </trkpt>
      <trkpt lat="43.96759" lon="6.49802">
        <ele>1072.5</ele>
        <time>2020-04-09T08:34:10Z</time>
      </trkpt>
      <trkpt lat="43.96811" lon="6.4985">
        <ele>1054.4</ele>
        <time>2020-04-09T08:34:10Z</time>
      </trkpt>
      <trkpt lat="43.96811" lon="6.49923">
        <ele>1033.4</ele>
        <time>2020-04-09T08:34:10Z</time>
      </trkpt>
      <trkpt lat="43.96864" lon="6.49983">
        <ele>1047.4</ele>
        <time>2020-04-09T08:34:10Z</time>
      </trkpt>
      <trkpt lat="43.96916" lon="6.5">
        <ele>1051.1</ele>
        <time>2020-04-09T08:34:10Z</time>
      </trkpt>
      <trkpt lat="43.96864" lon="6.49961">
        <ele>1050.8</ele>
        <time>2020-04-09T08:34:10Z</time>
      </trkpt>
      <trkpt lat="43.96916" lon="6.49965">
        <ele>1056.4</ele>
        <time>2020-04-09T08:34:10Z</time>
      </trkpt>
      <trkpt lat="43.96969" lon="6.4994">
        <ele>1074.5</ele>
        <time>2020-04-09T08:34:10Z</time>
      </trkpt>
      <trkpt lat="43.96916" lon="6.49875">
        <ele>1082.6</ele>
        <time>2020-04-09T08:34:10Z</time>
      </trkpt>
      <trkpt lat="43.96969" lon="6.49901">
        <ele>1098.8</ele>
        <time>2020-04-09T08:34:10Z</time>
      </trkpt>
      <trkpt lat="43.97021" lon="6.49884">
        <ele>1112.8</ele>
        <time>2020-04-09T08:34:10Z</time>
      </trkpt>
      <trkpt lat="43.96969" lon="6.49875">
        <ele>1103.3</ele>
        <time>2020-04-09T08:34:10Z</time>
      </trkpt>
      <trkpt lat="43.9691" lon="6.4982">
        <ele>1104.4</ele>
        <time>2020-04-09T08:34:10Z</time>
      </trkpt>
      <trkpt lat="43.96962" lon="6.49824">
        <ele>1129</ele>
        <time>2020-04-09T08:34:10Z</time>
      </trkpt>
      <trkpt lat="43.97015" lon="6.49841">
        <ele>1123.4</ele>
        <time>2020-04-09T08:34:10Z</time>
      </trkpt>
      <trkpt lat="43.96969" lon="6.49768">
        <ele>1140.9</ele>
        <time>2020-04-09T08:34:10Z</time>
      </trkpt>
      <trkpt lat="43.97021" lon="6.49824">
        <ele>1145.7</ele>
        <time>2020-04-09T08:34:10Z</time>
      </trkpt>
      <trkpt lat="43.97074" lon="6.49811">
        <ele>1153.6</ele>
        <time>2020-04-09T08:34:10Z</time>
      </trkpt>
      <trkpt lat="43.96759" lon="6.49425">
        <ele>1210.9</ele>
        <time>2020-04-09T08:34:10Z</time>
      </trkpt>
      <trkpt lat="43.9679" lon="6.49347">
        <ele>1241.9</ele>
        <time>2020-04-09T08:34:10Z</time>
      </trkpt>
      <trkpt lat="43.96827" lon="6.4942">
        <ele>1237.4</ele>
        <time>2020-04-09T08:34:10Z</time>
      </trkpt>
      <trkpt lat="43.97049" lon="6.49553">
        <ele>1267</ele>
        <time>2020-04-09T08:34:10Z</time>
      </trkpt>
      <trkpt lat="43.97101" lon="6.49562">
        <ele>1283.4</ele>
        <time>2020-04-09T08:34:10Z</time>
      </trkpt>
      <trkpt lat="43.97154" lon="6.49558">
        <ele>1289.9</ele>
        <time>2020-04-09T08:34:10Z</time>
      </trkpt>
      <trkpt lat="43.97206" lon="6.49489">
        <ele>1337.2</ele>
        <time>2020-04-09T08:34:10Z</time>
      </trkpt>
      <trkpt lat="43.97194" lon="6.49416">
        <ele>1374.1</ele>
        <time>2020-04-09T08:34:10Z</time>
      </trkpt>
      <trkpt lat="43.97216" lon="6.49343">
        <ele>1382.3</ele>
        <time>2020-04-09T08:34:10Z</time>
      </trkpt>
      <trkpt lat="43.97271" lon="6.49275">
        <ele>1404.9</ele>
        <time>2020-04-09T08:34:10Z</time>
      </trkpt>
      <trkpt lat="43.97376" lon="6.49249">
        <ele>1434.5</ele>
        <time>2020-04-09T08:34:10Z</time>
      </trkpt>
      <trkpt lat="43.97429" lon="6.49287">
        <ele>1434.5</ele>
        <time>2020-04-09T08:34:10Z</time>
      </trkpt>
      <trkpt lat="43.97447" lon="6.49365">
        <ele>1428.7</ele>
        <time>2020-04-09T08:34:10Z</time>
      </trkpt>
      <trkpt lat="43.975" lon="6.49408">
        <ele>1440.3</ele>
        <time>2020-04-09T08:34:10Z</time>
      </trkpt>
      <trkpt lat="43.97611" lon="6.49455">
        <ele>1448.5</ele>
        <time>2020-04-09T08:34:10Z</time>
      </trkpt>
      <trkpt lat="43.97667" lon="6.49459">
        <ele>1449.5</ele>
        <time>2020-04-09T08:34:10Z</time>
      </trkpt>
      <trkpt lat="43.97719" lon="6.49429">
        <ele>1463.1</ele>
        <time>2020-04-09T08:34:10Z</time>
      </trkpt>
      <trkpt lat="43.97775" lon="6.49459">
        <ele>1466.1</ele>
        <time>2020-04-09T08:34:10Z</time>
      </trkpt>
      <trkpt lat="43.97877" lon="6.49506">
        <ele>1450.1</ele>
        <time>2020-04-09T08:34:10Z</time>
      </trkpt>
      <trkpt lat="43.97929" lon="6.49481">
        <ele>1451.3</ele>
        <time>2020-04-09T08:34:10Z</time>
      </trkpt>
      <trkpt lat="43.98034" lon="6.49395">
        <ele>1438.3</ele>
        <time>2020-04-09T08:34:10Z</time>
      </trkpt>
      <trkpt lat="43.98087" lon="6.49395">
        <ele>1413.4</ele>
        <time>2020-04-09T08:34:10Z</time>
      </trkpt>
      <trkpt lat="43.98047" lon="6.49468">
        <ele>1417.7</ele>
        <time>2020-04-09T08:34:10Z</time>
      </trkpt>
      <trkpt lat="43.98028" lon="6.49541">
        <ele>1402.6</ele>
        <time>2020-04-09T08:34:10Z</time>
      </trkpt>
      <trkpt lat="43.97991" lon="6.49618">
        <ele>1407.6</ele>
        <time>2020-04-09T08:34:10Z</time>
      </trkpt>
      <trkpt lat="43.97938" lon="6.49678">
        <ele>1395.8</ele>
        <time>2020-04-09T08:34:10Z</time>
      </trkpt>
      <trkpt lat="43.97904" lon="6.49751">
        <ele>1380.5</ele>
        <time>2020-04-09T08:34:10Z</time>
      </trkpt>
      <trkpt lat="43.97957" lon="6.49708">
        <ele>1387</ele>
        <time>2020-04-09T08:34:10Z</time>
      </trkpt>
      <trkpt lat="43.98009" lon="6.49639">
        <ele>1381.4</ele>
        <time>2020-04-09T08:34:10Z</time>
      </trkpt>
      <trkpt lat="43.98074" lon="6.49588">
        <ele>1369.8</ele>
        <time>2020-04-09T08:34:10Z</time>
      </trkpt>
      <trkpt lat="43.98127" lon="6.49566">
        <ele>1363.4</ele>
        <time>2020-04-09T08:34:10Z</time>
      </trkpt>
      <trkpt lat="43.98182" lon="6.49566">
        <ele>1349.4</ele>
        <time>2020-04-09T08:34:10Z</time>
      </trkpt>
      <trkpt lat="43.98235" lon="6.49583">
        <ele>1336.1</ele>
        <time>2020-04-09T08:34:10Z</time>
      </trkpt>
      <trkpt lat="43.9829" lon="6.49618">
        <ele>1333.2</ele>
        <time>2020-04-09T08:34:10Z</time>
      </trkpt>
      <trkpt lat="43.98343" lon="6.49588">
        <ele>1336.1</ele>
        <time>2020-04-09T08:34:10Z</time>
      </trkpt>
      <trkpt lat="43.98402" lon="6.49438">
        <ele>1334.5</ele>
        <time>2020-04-09T08:34:10Z</time>
      </trkpt>
      <trkpt lat="43.98395" lon="6.49365">
        <ele>1332.1</ele>
        <time>2020-04-09T08:34:10Z</time>
      </trkpt>
      <trkpt lat="43.98408" lon="6.49292">
        <ele>1318.2</ele>
        <time>2020-04-09T08:34:10Z</time>
      </trkpt>
      <trkpt lat="43.98383" lon="6.49219">
        <ele>1304</ele>
        <time>2020-04-09T08:34:10Z</time>
      </trkpt>
      <trkpt lat="43.98488" lon="6.49317">
        <ele>1291.3</ele>
        <time>2020-04-09T08:34:10Z</time>
      </trkpt>
      <trkpt lat="43.98451" lon="6.49244">
        <ele>1279.2</ele>
        <time>2020-04-09T08:34:10Z</time>
      </trkpt>
      <trkpt lat="43.98349" lon="6.49107">
        <ele>1291.2</ele>
        <time>2020-04-09T08:34:10Z</time>
      </trkpt>
      <trkpt lat="43.98328" lon="6.49034">
        <ele>1305.4</ele>
        <time>2020-04-09T08:34:10Z</time>
      </trkpt>
      <trkpt lat="43.98334" lon="6.48961">
        <ele>1305.1</ele>
        <time>2020-04-09T08:34:10Z</time>
      </trkpt>
      <trkpt lat="43.98439" lon="6.48991">
        <ele>1294.7</ele>
        <time>2020-04-09T08:34:10Z</time>
      </trkpt>
      <trkpt lat="43.98491" lon="6.48974">
        <ele>1296.7</ele>
        <time>2020-04-09T08:34:10Z</time>
      </trkpt>
      <trkpt lat="43.98544" lon="6.48966">
        <ele>1285.6</ele>
        <time>2020-04-09T08:34:10Z</time>
      </trkpt>
      <trkpt lat="43.98621" lon="6.48918">
        <ele>1266.3</ele>
        <time>2020-04-09T08:34:10Z</time>
      </trkpt>
      <trkpt lat="43.98676" lon="6.4885">
        <ele>1276.2</ele>
        <time>2020-04-09T08:34:10Z</time>
      </trkpt>
      <trkpt lat="43.98698" lon="6.48777">
        <ele>1283.5</ele>
        <time>2020-04-09T08:34:10Z</time>
      </trkpt>
      <trkpt lat="43.98862" lon="6.48575">
        <ele>1290.1</ele>
        <time>2020-04-09T08:34:10Z</time>
      </trkpt>
      <trkpt lat="43.98917" lon="6.48566">
        <ele>1276.2</ele>
        <time>2020-04-09T08:34:10Z</time>
      </trkpt>
      <trkpt lat="43.99025" lon="6.48515">
        <ele>1282.2</ele>
        <time>2020-04-09T08:34:10Z</time>
      </trkpt>
      <trkpt lat="43.99081" lon="6.48506">
        <ele>1285.1</ele>
        <time>2020-04-09T08:34:10Z</time>
      </trkpt>
      <trkpt lat="43.99133" lon="6.48459">
        <ele>1289.8</ele>
        <time>2020-04-09T08:34:10Z</time>
      </trkpt>
      <trkpt lat="43.99186" lon="6.48442">
        <ele>1287.7</ele>
        <time>2020-04-09T08:34:10Z</time>
      </trkpt>
      <trkpt lat="43.99238" lon="6.48476">
        <ele>1282.2</ele>
        <time>2020-04-09T08:34:10Z</time>
      </trkpt>
      <trkpt lat="43.99343" lon="6.48579">
        <ele>1273.2</ele>
        <time>2020-04-09T08:34:10Z</time>
      </trkpt>
      <trkpt lat="43.99396" lon="6.48545">
        <ele>1274.2</ele>
        <time>2020-04-09T08:34:10Z</time>
      </trkpt>
      <trkpt lat="43.99451" lon="6.48399">
        <ele>1293.8</ele>
        <time>2020-04-09T08:34:10Z</time>
      </trkpt>
      <trkpt lat="43.99504" lon="6.48412">
        <ele>1288.8</ele>
        <time>2020-04-09T08:34:10Z</time>
      </trkpt>
      <trkpt lat="43.99556" lon="6.48451">
        <ele>1297.1</ele>
        <time>2020-04-09T08:34:10Z</time>
      </trkpt>
      <trkpt lat="43.99584" lon="6.48554">
        <ele>1290.1</ele>
        <time>2020-04-09T08:34:10Z</time>
      </trkpt>
      <trkpt lat="43.99637" lon="6.48601">
        <ele>1269.8</ele>
        <time>2020-04-09T08:34:10Z</time>
      </trkpt>
      <trkpt lat="43.99695" lon="6.48614">
        <ele>1284.1</ele>
        <time>2020-04-09T08:34:10Z</time>
      </trkpt>
      <trkpt lat="43.99748" lon="6.48639">
        <ele>1283.4</ele>
        <time>2020-04-09T08:34:10Z</time>
      </trkpt>
      <trkpt lat="43.99742" lon="6.48785">
        <ele>1265.5</ele>
        <time>2020-04-09T08:34:10Z</time>
      </trkpt>
      <trkpt lat="43.99751" lon="6.48858">
        <ele>1285.8</ele>
        <time>2020-04-09T08:34:10Z</time>
      </trkpt>
      <trkpt lat="43.99794" lon="6.48931">
        <ele>1290.4</ele>
        <time>2020-04-09T08:34:10Z</time>
      </trkpt>
      <trkpt lat="43.9981" lon="6.49008">
        <ele>1292.7</ele>
        <time>2020-04-09T08:34:10Z</time>
      </trkpt>
      <trkpt lat="43.9981" lon="6.49159">
        <ele>1297.9</ele>
        <time>2020-04-09T08:34:10Z</time>
      </trkpt>
      <trkpt lat="43.998" lon="6.49232">
        <ele>1292.1</ele>
        <time>2020-04-09T08:34:10Z</time>
      </trkpt>
      <trkpt lat="43.9984" lon="6.49309">
        <ele>1306.9</ele>
        <time>2020-04-09T08:34:10Z</time>
      </trkpt>
      <trkpt lat="43.99893" lon="6.49309">
        <ele>1308.8</ele>
        <time>2020-04-09T08:34:10Z</time>
      </trkpt>
      <trkpt lat="44.00109" lon="6.49202">
        <ele>1320.5</ele>
        <time>2020-04-09T08:34:10Z</time>
      </trkpt>
      <trkpt lat="44.00165" lon="6.49189">
        <ele>1322.8</ele>
        <time>2020-04-09T08:34:10Z</time>
      </trkpt>
      <trkpt lat="44.00217" lon="6.49159">
        <ele>1328</ele>
        <time>2020-04-09T08:34:10Z</time>
      </trkpt>
      <trkpt lat="44.00313" lon="6.49013">
        <ele>1326.9</ele>
        <time>2020-04-09T08:34:10Z</time>
      </trkpt>
      <trkpt lat="44.00365" lon="6.49008">
        <ele>1306.3</ele>
        <time>2020-04-09T08:34:10Z</time>
      </trkpt>
      <trkpt lat="44.00408" lon="6.48935">
        <ele>1329.1</ele>
        <time>2020-04-09T08:34:10Z</time>
      </trkpt>
      <trkpt lat="44.00427" lon="6.48858">
        <ele>1324.6</ele>
        <time>2020-04-09T08:34:10Z</time>
      </trkpt>
      <trkpt lat="44.0043" lon="6.48777">
        <ele>1329.6</ele>
        <time>2020-04-09T08:34:10Z</time>
      </trkpt>
      <trkpt lat="44.00418" lon="6.48549">
        <ele>1315</ele>
        <time>2020-04-09T08:34:10Z</time>
      </trkpt>
      <trkpt lat="44.00396" lon="6.48476">
        <ele>1337.3</ele>
        <time>2020-04-09T08:34:10Z</time>
      </trkpt>
      <trkpt lat="44.00405" lon="6.48395">
        <ele>1338.1</ele>
        <time>2020-04-09T08:34:10Z</time>
      </trkpt>
      <trkpt lat="44.00461" lon="6.48378">
        <ele>1324.6</ele>
        <time>2020-04-09T08:34:10Z</time>
      </trkpt>
      <trkpt lat="44.0047" lon="6.48305">
        <ele>1336.4</ele>
        <time>2020-04-09T08:34:10Z</time>
      </trkpt>
      <trkpt lat="44.00436" lon="6.48232">
        <ele>1353.4</ele>
        <time>2020-04-09T08:34:10Z</time>
      </trkpt>
      <trkpt lat="44.00442" lon="6.48154">
        <ele>1359.3</ele>
        <time>2020-04-09T08:34:10Z</time>
      </trkpt>
      <trkpt lat="44.00467" lon="6.48081">
        <ele>1350.8</ele>
        <time>2020-04-09T08:34:10Z</time>
      </trkpt>
      <trkpt lat="44.00479" lon="6.48009">
        <ele>1342.8</ele>
        <time>2020-04-09T08:34:10Z</time>
      </trkpt>
      <trkpt lat="44.00479" lon="6.48154">
        <ele>1340.3</ele>
        <time>2020-04-09T08:34:10Z</time>
      </trkpt>
      <trkpt lat="44.00501" lon="6.48227">
        <ele>1303.8</ele>
        <time>2020-04-09T08:34:10Z</time>
      </trkpt>
      <trkpt lat="44.00535" lon="6.483">
        <ele>1296</ele>
        <time>2020-04-09T08:34:10Z</time>
      </trkpt>
      <trkpt lat="44.0055" lon="6.48373">
        <ele>1289.7</ele>
        <time>2020-04-09T08:34:10Z</time>
      </trkpt>
      <trkpt lat="44.00532" lon="6.48446">
        <ele>1282.7</ele>
        <time>2020-04-09T08:34:10Z</time>
      </trkpt>
      <trkpt lat="44.00479" lon="6.48489">
        <ele>1301.8</ele>
        <time>2020-04-09T08:34:10Z</time>
      </trkpt>
      <trkpt lat="44.00495" lon="6.48562">
        <ele>1296.8</ele>
        <time>2020-04-09T08:34:10Z</time>
      </trkpt>
      <trkpt lat="44.00587" lon="6.48717">
        <ele>1239.1</ele>
        <time>2020-04-09T08:34:10Z</time>
      </trkpt>
      <trkpt lat="44.00624" lon="6.4879">
        <ele>1238.6</ele>
        <time>2020-04-09T08:34:10Z</time>
      </trkpt>
      <trkpt lat="44.00643" lon="6.48863">
        <ele>1232.4</ele>
        <time>2020-04-09T08:34:10Z</time>
      </trkpt>
      <trkpt lat="44.00646" lon="6.49017">
        <ele>1207.1</ele>
        <time>2020-04-09T08:34:10Z</time>
      </trkpt>
      <trkpt lat="44.006" lon="6.49163">
        <ele>1190.5</ele>
        <time>2020-04-09T08:34:10Z</time>
      </trkpt>
      <trkpt lat="44.00495" lon="6.4924">
        <ele>1182.3</ele>
        <time>2020-04-09T08:34:10Z</time>
      </trkpt>
      <trkpt lat="44.00439" lon="6.49292">
        <ele>1179.4</ele>
        <time>2020-04-09T08:34:10Z</time>
      </trkpt>
      <trkpt lat="44.00445" lon="6.49425">
        <ele>1155.1</ele>
        <time>2020-04-09T08:34:10Z</time>
      </trkpt>
      <trkpt lat="44.00371" lon="6.49789">
        <ele>1099.1</ele>
        <time>2020-04-09T08:34:10Z</time>
      </trkpt>
      <trkpt lat="44.00319" lon="6.49828">
        <ele>1102.5</ele>
        <time>2020-04-09T08:34:10Z</time>
      </trkpt>
      <trkpt lat="44.00263" lon="6.49832">
        <ele>1100</ele>
        <time>2020-04-09T08:34:10Z</time>
      </trkpt>
      <trkpt lat="44.00211" lon="6.49815">
        <ele>1096.5</ele>
        <time>2020-04-09T08:34:10Z</time>
      </trkpt>
      <trkpt lat="44.00158" lon="6.49772">
        <ele>1087.7</ele>
        <time>2020-04-09T08:34:10Z</time>
      </trkpt>
      <trkpt lat="44.00106" lon="6.49747">
        <ele>1096.8</ele>
        <time>2020-04-09T08:34:10Z</time>
      </trkpt>
      <trkpt lat="44.0005" lon="6.49747">
        <ele>1084.1</ele>
        <time>2020-04-09T08:34:10Z</time>
      </trkpt>
      <trkpt lat="43.99779" lon="6.49888">
        <ele>1028.5</ele>
        <time>2020-04-09T08:34:10Z</time>
      </trkpt>
      <trkpt lat="43.9972" lon="6.49944">
        <ele>1014.4</ele>
        <time>2020-04-09T08:34:10Z</time>
      </trkpt>
      <trkpt lat="43.99556" lon="6.50064">
        <ele>991.4</ele>
        <time>2020-04-09T08:34:10Z</time>
      </trkpt>
      <trkpt lat="43.99445" lon="6.50201">
        <ele>950.8</ele>
        <time>2020-04-09T08:34:10Z</time>
      </trkpt>
      <trkpt lat="43.99337" lon="6.50253">
        <ele>953.3</ele>
        <time>2020-04-09T08:34:10Z</time>
      </trkpt>
      <trkpt lat="43.99285" lon="6.50304">
        <ele>945.2</ele>
        <time>2020-04-09T08:34:10Z</time>
      </trkpt>
      <trkpt lat="43.99356" lon="6.50287">
        <ele>946.5</ele>
        <time>2020-04-09T08:34:10Z</time>
      </trkpt>
      <trkpt lat="43.99408" lon="6.50287">
        <ele>944.7</ele>
        <time>2020-04-09T08:34:10Z</time>
      </trkpt>
      <trkpt lat="43.99461" lon="6.503">
        <ele>942.9</ele>
        <time>2020-04-09T08:34:10Z</time>
      </trkpt>
      <trkpt lat="43.99516" lon="6.503">
        <ele>946.2</ele>
        <time>2020-04-09T08:34:10Z</time>
      </trkpt>
      <trkpt lat="43.99572" lon="6.50274">
        <ele>947.9</ele>
        <time>2020-04-09T08:34:10Z</time>
      </trkpt>
      <trkpt lat="43.99627" lon="6.50227">
        <ele>947.6</ele>
        <time>2020-04-09T08:34:10Z</time>
      </trkpt>
      <trkpt lat="43.9968" lon="6.50232">
        <ele>951.5</ele>
        <time>2020-04-09T08:34:10Z</time>
      </trkpt>
      <trkpt lat="43.99572" lon="6.50313">
        <ele>949.8</ele>
        <time>2020-04-09T08:34:10Z</time>
      </trkpt>
      <trkpt lat="43.99516" lon="6.50463">
        <ele>979.5</ele>
        <time>2020-04-09T08:34:10Z</time>
      </trkpt>
      <trkpt lat="43.99464" lon="6.50502">
        <ele>983</ele>
        <time>2020-04-09T08:34:10Z</time>
      </trkpt>
      <trkpt lat="43.99464" lon="6.50575">
        <ele>996.2</ele>
        <time>2020-04-09T08:34:10Z</time>
      </trkpt>
      <trkpt lat="43.99519" lon="6.50571">
        <ele>1015</ele>
        <time>2020-04-09T08:34:10Z</time>
      </trkpt>
      <trkpt lat="43.99575" lon="6.5051">
        <ele>1012.4</ele>
        <time>2020-04-09T08:34:10Z</time>
      </trkpt>
      <trkpt lat="43.99615" lon="6.50433">
        <ele>1005.5</ele>
        <time>2020-04-09T08:34:10Z</time>
      </trkpt>
      <trkpt lat="43.99668" lon="6.50403">
        <ele>1012.4</ele>
        <time>2020-04-09T08:34:10Z</time>
      </trkpt>
      <trkpt lat="43.99646" lon="6.50476">
        <ele>1020.2</ele>
        <time>2020-04-09T08:34:10Z</time>
      </trkpt>
      <trkpt lat="43.99698" lon="6.50446">
        <ele>1035.4</ele>
        <time>2020-04-09T08:34:10Z</time>
      </trkpt>
      <trkpt lat="43.99751" lon="6.5039">
        <ele>1030.4</ele>
        <time>2020-04-09T08:34:10Z</time>
      </trkpt>
      <trkpt lat="43.99803" lon="6.50386">
        <ele>1029.4</ele>
        <time>2020-04-09T08:34:10Z</time>
      </trkpt>
      <trkpt lat="44.00013" lon="6.50553">
        <ele>1057.4</ele>
        <time>2020-04-09T08:34:10Z</time>
      </trkpt>
      <trkpt lat="43.99927" lon="6.50704">
        <ele>1081</ele>
        <time>2020-04-09T08:34:10Z</time>
      </trkpt>
      <trkpt lat="43.99874" lon="6.50768">
        <ele>1096.4</ele>
        <time>2020-04-09T08:34:10Z</time>
      </trkpt>
      <trkpt lat="43.99819" lon="6.50777">
        <ele>1098</ele>
        <time>2020-04-09T08:34:10Z</time>
      </trkpt>
      <trkpt lat="43.99766" lon="6.50759">
        <ele>1099.9</ele>
        <time>2020-04-09T08:34:10Z</time>
      </trkpt>
      <trkpt lat="43.99714" lon="6.50759">
        <ele>1104.8</ele>
        <time>2020-04-09T08:34:10Z</time>
      </trkpt>
      <trkpt lat="43.99658" lon="6.50789">
        <ele>1108.9</ele>
        <time>2020-04-09T08:34:10Z</time>
      </trkpt>
      <trkpt lat="43.99482" lon="6.50871">
        <ele>1123.3</ele>
        <time>2020-04-09T08:34:10Z</time>
      </trkpt>
      <trkpt lat="43.99427" lon="6.50922">
        <ele>1134.1</ele>
        <time>2020-04-09T08:34:10Z</time>
      </trkpt>
      <trkpt lat="43.99155" lon="6.51068">
        <ele>1140.9</ele>
        <time>2020-04-09T08:34:10Z</time>
      </trkpt>
      <trkpt lat="43.98825" lon="6.51124">
        <ele>1140.5</ele>
        <time>2020-04-09T08:34:10Z</time>
      </trkpt>
      <trkpt lat="43.98609" lon="6.51244">
        <ele>1131.7</ele>
        <time>2020-04-09T08:34:10Z</time>
      </trkpt>
      <trkpt lat="43.98562" lon="6.51317">
        <ele>1130.8</ele>
        <time>2020-04-09T08:34:10Z</time>
      </trkpt>
      <trkpt lat="43.98507" lon="6.5142">
        <ele>1139.4</ele>
        <time>2020-04-09T08:34:10Z</time>
      </trkpt>
      <trkpt lat="43.98451" lon="6.51425">
        <ele>1136.1</ele>
        <time>2020-04-09T08:34:10Z</time>
      </trkpt>
      <trkpt lat="43.98476" lon="6.51498">
        <ele>1142.1</ele>
        <time>2020-04-09T08:34:10Z</time>
      </trkpt>
      <trkpt lat="43.98757" lon="6.51609">
        <ele>1231.9</ele>
        <time>2020-04-09T08:34:10Z</time>
      </trkpt>
      <trkpt lat="43.98809" lon="6.51635">
        <ele>1234.4</ele>
        <time>2020-04-09T08:34:10Z</time>
      </trkpt>
      <trkpt lat="43.9893" lon="6.51678">
        <ele>1255.1</ele>
        <time>2020-04-09T08:34:10Z</time>
      </trkpt>
      <trkpt lat="43.99041" lon="6.51734">
        <ele>1273.8</ele>
        <time>2020-04-09T08:34:10Z</time>
      </trkpt>
      <trkpt lat="43.99096" lon="6.51746">
        <ele>1290.1</ele>
        <time>2020-04-09T08:34:10Z</time>
      </trkpt>
      <trkpt lat="43.99149" lon="6.51794">
        <ele>1296.2</ele>
        <time>2020-04-09T08:34:10Z</time>
      </trkpt>
      <trkpt lat="43.99183" lon="6.51867">
        <ele>1301.5</ele>
        <time>2020-04-09T08:34:10Z</time>
      </trkpt>
      <trkpt lat="43.99238" lon="6.51867">
        <ele>1312.7</ele>
        <time>2020-04-09T08:34:10Z</time>
      </trkpt>
      <trkpt lat="43.99294" lon="6.51819">
        <ele>1351.5</ele>
        <time>2020-04-09T08:34:10Z</time>
      </trkpt>
      <trkpt lat="43.99346" lon="6.51824">
        <ele>1369.4</ele>
        <time>2020-04-09T08:34:10Z</time>
      </trkpt>
      <trkpt lat="43.99402" lon="6.51845">
        <ele>1379.6</ele>
        <time>2020-04-09T08:34:10Z</time>
      </trkpt>
      <trkpt lat="43.99516" lon="6.51944">
        <ele>1407.6</ele>
        <time>2020-04-09T08:34:10Z</time>
      </trkpt>
      <trkpt lat="43.99569" lon="6.51944">
        <ele>1413.7</ele>
        <time>2020-04-09T08:34:10Z</time>
      </trkpt>
      <trkpt lat="43.99624" lon="6.51982">
        <ele>1425.3</ele>
        <time>2020-04-09T08:34:10Z</time>
      </trkpt>
      <trkpt lat="43.99686" lon="6.52021">
        <ele>1435.6</ele>
        <time>2020-04-09T08:34:10Z</time>
      </trkpt>
      <trkpt lat="43.99742" lon="6.52038">
        <ele>1442.9</ele>
        <time>2020-04-09T08:34:10Z</time>
      </trkpt>
      <trkpt lat="43.99908" lon="6.51931">
        <ele>1485.8</ele>
        <time>2020-04-09T08:34:10Z</time>
      </trkpt>
      <trkpt lat="43.99964" lon="6.51931">
        <ele>1498.7</ele>
        <time>2020-04-09T08:34:10Z</time>
      </trkpt>
      <trkpt lat="44.00016" lon="6.51961">
        <ele>1508.9</ele>
        <time>2020-04-09T08:34:10Z</time>
      </trkpt>
      <trkpt lat="44.00035" lon="6.52034">
        <ele>1534.8</ele>
        <time>2020-04-09T08:34:10Z</time>
      </trkpt>
      <trkpt lat="43.99979" lon="6.52103">
        <ele>1537.2</ele>
        <time>2020-04-09T08:34:10Z</time>
      </trkpt>
      <trkpt lat="44.00294" lon="6.52223">
        <ele>1617.6</ele>
        <time>2020-04-09T08:34:10Z</time>
      </trkpt>
      <trkpt lat="44.003" lon="6.52218">
        <ele>1617.6</ele>
        <time>2020-04-09T08:34:10Z</time>
      </trkpt>
      <trkpt lat="44.00393" lon="6.52304">
        <ele>1648.7</ele>
        <time>2020-04-09T08:34:10Z</time>
      </trkpt>
      <trkpt lat="44.00445" lon="6.52283">
        <ele>1656</ele>
        <time>2020-04-09T08:34:10Z</time>
      </trkpt>
      <trkpt lat="44.00498" lon="6.52218">
        <ele>1647.1</ele>
        <time>2020-04-09T08:34:10Z</time>
      </trkpt>
      <trkpt lat="44.0055" lon="6.52184">
        <ele>1656.2</ele>
        <time>2020-04-09T08:34:10Z</time>
      </trkpt>
      <trkpt lat="44.00662" lon="6.52193">
        <ele>1669.1</ele>
        <time>2020-04-09T08:34:10Z</time>
      </trkpt>
      <trkpt lat="44.00825" lon="6.52279">
        <ele>1686.4</ele>
        <time>2020-04-09T08:34:10Z</time>
      </trkpt>
      <trkpt lat="44.01152" lon="6.52592">
        <ele>1717.4</ele>
        <time>2020-04-09T08:34:10Z</time>
      </trkpt>
      <trkpt lat="44.01257" lon="6.52639">
        <ele>1723</ele>
        <time>2020-04-09T08:34:10Z</time>
      </trkpt>
      <trkpt lat="44.01236" lon="6.52716">
        <ele>1736.7</ele>
        <time>2020-04-09T08:34:10Z</time>
      </trkpt>
      <trkpt lat="44.01131" lon="6.52794">
        <ele>1749.4</ele>
        <time>2020-04-09T08:34:10Z</time>
      </trkpt>
      <trkpt lat="44.01075" lon="6.52798">
        <ele>1752.2</ele>
        <time>2020-04-09T08:34:10Z</time>
      </trkpt>
      <trkpt lat="44.01023" lon="6.52824">
        <ele>1754.7</ele>
        <time>2020-04-09T08:34:10Z</time>
      </trkpt>
      <trkpt lat="44.01075" lon="6.52828">
        <ele>1753.6</ele>
        <time>2020-04-09T08:34:10Z</time>
      </trkpt>
      <trkpt lat="44.01128" lon="6.52849">
        <ele>1755.4</ele>
        <time>2020-04-09T08:34:10Z</time>
      </trkpt>
      <trkpt lat="44.0118" lon="6.52892">
        <ele>1759.3</ele>
        <time>2020-04-09T08:34:10Z</time>
      </trkpt>
      <trkpt lat="44.01229" lon="6.52905">
        <ele>1759.1</ele>
        <time>2020-04-09T08:34:10Z</time>
      </trkpt>
      <trkpt lat="44.01501" lon="6.52901">
        <ele>1732.1</ele>
        <time>2020-04-09T08:34:10Z</time>
      </trkpt>
      <trkpt lat="44.01729" lon="6.52811">
        <ele>1720.5</ele>
        <time>2020-04-09T08:34:10Z</time>
      </trkpt>
      <trkpt lat="44.01788" lon="6.52772">
        <ele>1717.8</ele>
        <time>2020-04-09T08:34:10Z</time>
      </trkpt>
      <trkpt lat="44.01844" lon="6.52695">
        <ele>1715.2</ele>
        <time>2020-04-09T08:34:10Z</time>
      </trkpt>
      <trkpt lat="44.01884" lon="6.52618">
        <ele>1716.1</ele>
        <time>2020-04-09T08:34:10Z</time>
      </trkpt>
      <trkpt lat="44.01905" lon="6.52545">
        <ele>1718.7</ele>
        <time>2020-04-09T08:34:10Z</time>
      </trkpt>
      <trkpt lat="44.01912" lon="6.52472">
        <ele>1724.6</ele>
        <time>2020-04-09T08:34:10Z</time>
      </trkpt>
      <trkpt lat="44.01983" lon="6.52356">
        <ele>1730.5</ele>
        <time>2020-04-09T08:34:10Z</time>
      </trkpt>
      <trkpt lat="44.02097" lon="6.52309">
        <ele>1722.6</ele>
        <time>2020-04-09T08:34:10Z</time>
      </trkpt>
      <trkpt lat="44.02149" lon="6.52266">
        <ele>1715.9</ele>
        <time>2020-04-09T08:34:10Z</time>
      </trkpt>
      <trkpt lat="44.02362" lon="6.52279">
        <ele>1682.2</ele>
        <time>2020-04-09T08:34:10Z</time>
      </trkpt>
      <trkpt lat="44.02467" lon="6.52253">
        <ele>1665.7</ele>
        <time>2020-04-09T08:34:10Z</time>
      </trkpt>
      <trkpt lat="44.02519" lon="6.52266">
        <ele>1657.2</ele>
        <time>2020-04-09T08:34:10Z</time>
      </trkpt>
      <trkpt lat="44.02572" lon="6.52309">
        <ele>1656.2</ele>
        <time>2020-04-09T08:34:10Z</time>
      </trkpt>
      <trkpt lat="44.02631" lon="6.52287">
        <ele>1648.8</ele>
        <time>2020-04-09T08:34:10Z</time>
      </trkpt>
      <trkpt lat="44.02683" lon="6.52249">
        <ele>1646.6</ele>
        <time>2020-04-09T08:34:10Z</time>
      </trkpt>
      <trkpt lat="44.02791" lon="6.52218">
        <ele>1645</ele>
        <time>2020-04-09T08:34:10Z</time>
      </trkpt>
      <trkpt lat="44.03078" lon="6.52013">
        <ele>1631.8</ele>
        <time>2020-04-09T08:34:10Z</time>
      </trkpt>
      <trkpt lat="44.03133" lon="6.51952">
        <ele>1628.1</ele>
        <time>2020-04-09T08:34:10Z</time>
      </trkpt>
      <trkpt lat="44.03186" lon="6.51914">
        <ele>1622.4</ele>
        <time>2020-04-09T08:34:10Z</time>
      </trkpt>
      <trkpt lat="44.03343" lon="6.51824">
        <ele>1613.4</ele>
        <time>2020-04-09T08:34:10Z</time>
      </trkpt>
      <trkpt lat="44.03448" lon="6.51712">
        <ele>1608.2</ele>
        <time>2020-04-09T08:34:10Z</time>
      </trkpt>
      <trkpt lat="44.03501" lon="6.51686">
        <ele>1597.6</ele>
        <time>2020-04-09T08:34:10Z</time>
      </trkpt>
      <trkpt lat="44.03556" lon="6.51639">
        <ele>1589.7</ele>
        <time>2020-04-09T08:34:10Z</time>
      </trkpt>
      <trkpt lat="44.03609" lon="6.51613">
        <ele>1577</ele>
        <time>2020-04-09T08:34:10Z</time>
      </trkpt>
      <trkpt lat="44.03661" lon="6.51609">
        <ele>1572.8</ele>
        <time>2020-04-09T08:34:10Z</time>
      </trkpt>
      <trkpt lat="44.03717" lon="6.5154">
        <ele>1564.8</ele>
        <time>2020-04-09T08:34:10Z</time>
      </trkpt>
      <trkpt lat="44.0376" lon="6.51467">
        <ele>1561.4</ele>
        <time>2020-04-09T08:34:10Z</time>
      </trkpt>
      <trkpt lat="44.03812" lon="6.5142">
        <ele>1559.6</ele>
        <time>2020-04-09T08:34:10Z</time>
      </trkpt>
      <trkpt lat="44.0397" lon="6.51386">
        <ele>1535.2</ele>
        <time>2020-04-09T08:34:10Z</time>
      </trkpt>
      <trkpt lat="44.04078" lon="6.5139">
        <ele>1524.8</ele>
        <time>2020-04-09T08:34:10Z</time>
      </trkpt>
      <trkpt lat="44.04195" lon="6.51455">
        <ele>1511.6</ele>
        <time>2020-04-09T08:34:10Z</time>
      </trkpt>
      <trkpt lat="44.04253" lon="6.51446">
        <ele>1505.2</ele>
        <time>2020-04-09T08:34:10Z</time>
      </trkpt>
      <trkpt lat="44.04312" lon="6.5139">
        <ele>1501.3</ele>
        <time>2020-04-09T08:34:10Z</time>
      </trkpt>
      <trkpt lat="44.04364" lon="6.5136">
        <ele>1499.3</ele>
        <time>2020-04-09T08:34:10Z</time>
      </trkpt>
      <trkpt lat="44.0442" lon="6.51364">
        <ele>1498.6</ele>
        <time>2020-04-09T08:34:10Z</time>
      </trkpt>
      <trkpt lat="44.04426" lon="6.51287">
        <ele>1505.1</ele>
        <time>2020-04-09T08:34:10Z</time>
      </trkpt>
      <trkpt lat="44.04476" lon="6.51214">
        <ele>1506.3</ele>
        <time>2020-04-09T08:34:10Z</time>
      </trkpt>
      <trkpt lat="44.04528" lon="6.51184">
        <ele>1506.8</ele>
        <time>2020-04-09T08:34:10Z</time>
      </trkpt>
      <trkpt lat="44.04793" lon="6.51154">
        <ele>1490.4</ele>
        <time>2020-04-09T08:34:10Z</time>
      </trkpt>
      <trkpt lat="44.04849" lon="6.51176">
        <ele>1487.6</ele>
        <time>2020-04-09T08:34:10Z</time>
      </trkpt>
      <trkpt lat="44.04904" lon="6.51219">
        <ele>1487.1</ele>
        <time>2020-04-09T08:34:10Z</time>
      </trkpt>
      <trkpt lat="44.04957" lon="6.51236">
        <ele>1490.8</ele>
        <time>2020-04-09T08:34:10Z</time>
      </trkpt>
      <trkpt lat="44.05015" lon="6.51236">
        <ele>1494.4</ele>
        <time>2020-04-09T08:34:10Z</time>
      </trkpt>
      <trkpt lat="44.05145" lon="6.5118">
        <ele>1496.4</ele>
        <time>2020-04-09T08:34:10Z</time>
      </trkpt>
      <trkpt lat="44.05197" lon="6.51167">
        <ele>1496.5</ele>
        <time>2020-04-09T08:34:10Z</time>
      </trkpt>
      <trkpt lat="44.05311" lon="6.51158">
        <ele>1497.1</ele>
        <time>2020-04-09T08:34:10Z</time>
      </trkpt>
      <trkpt lat="44.05426" lon="6.51189">
        <ele>1492.1</ele>
        <time>2020-04-09T08:34:10Z</time>
      </trkpt>
      <trkpt lat="44.05604" lon="6.51283">
        <ele>1482</ele>
        <time>2020-04-09T08:34:10Z</time>
      </trkpt>
      <trkpt lat="44.05715" lon="6.51382">
        <ele>1476</ele>
        <time>2020-04-09T08:34:10Z</time>
      </trkpt>
      <trkpt lat="44.05771" lon="6.51459">
        <ele>1476.1</ele>
        <time>2020-04-09T08:34:10Z</time>
      </trkpt>
      <trkpt lat="44.05826" lon="6.51425">
        <ele>1477</ele>
        <time>2020-04-09T08:34:10Z</time>
      </trkpt>
      <trkpt lat="44.05845" lon="6.51352">
        <ele>1478.1</ele>
        <time>2020-04-09T08:34:10Z</time>
      </trkpt>
      <trkpt lat="44.05916" lon="6.5118">
        <ele>1455.5</ele>
        <time>2020-04-09T08:34:10Z</time>
      </trkpt>
      <trkpt lat="44.05971" lon="6.5118">
        <ele>1459.3</ele>
        <time>2020-04-09T08:34:10Z</time>
      </trkpt>
      <trkpt lat="44.06024" lon="6.51167">
        <ele>1457.8</ele>
        <time>2020-04-09T08:34:10Z</time>
      </trkpt>
      <trkpt lat="44.05922" lon="6.5103">
        <ele>1453.9</ele>
        <time>2020-04-09T08:34:10Z</time>
      </trkpt>
      <trkpt lat="44.05867" lon="6.50987">
        <ele>1456.2</ele>
        <time>2020-04-09T08:34:10Z</time>
      </trkpt>
      <trkpt lat="44.05811" lon="6.50922">
        <ele>1449</ele>
        <time>2020-04-09T08:34:10Z</time>
      </trkpt>
      <trkpt lat="44.05823" lon="6.50845">
        <ele>1461.5</ele>
        <time>2020-04-09T08:34:10Z</time>
      </trkpt>
      <trkpt lat="44.05857" lon="6.50772">
        <ele>1477.7</ele>
        <time>2020-04-09T08:34:10Z</time>
      </trkpt>
      <trkpt lat="44.05879" lon="6.50699">
        <ele>1480.4</ele>
        <time>2020-04-09T08:34:10Z</time>
      </trkpt>
      <trkpt lat="44.05941" lon="6.50549">
        <ele>1485.4</ele>
        <time>2020-04-09T08:34:10Z</time>
      </trkpt>
      <trkpt lat="44.05962" lon="6.50476">
        <ele>1477.9</ele>
        <time>2020-04-09T08:34:10Z</time>
      </trkpt>
      <trkpt lat="44.05996" lon="6.50386">
        <ele>1472</ele>
        <time>2020-04-09T08:34:10Z</time>
      </trkpt>
      <trkpt lat="44.06135" lon="6.50154">
        <ele>1483.8</ele>
        <time>2020-04-09T08:34:10Z</time>
      </trkpt>
      <trkpt lat="44.0624" lon="6.50021">
        <ele>1493.6</ele>
        <time>2020-04-09T08:34:10Z</time>
      </trkpt>
      <trkpt lat="44.06292" lon="6.49854">
        <ele>1494.5</ele>
        <time>2020-04-09T08:34:10Z</time>
      </trkpt>
      <trkpt lat="44.064" lon="6.49717">
        <ele>1499.4</ele>
        <time>2020-04-09T08:34:10Z</time>
      </trkpt>
      <trkpt lat="44.06483" lon="6.49571">
        <ele>1504</ele>
        <time>2020-04-09T08:34:10Z</time>
      </trkpt>
      <trkpt lat="44.06505" lon="6.49498">
        <ele>1503.9</ele>
        <time>2020-04-09T08:34:10Z</time>
      </trkpt>
      <trkpt lat="44.06508" lon="6.49425">
        <ele>1502.8</ele>
        <time>2020-04-09T08:34:10Z</time>
      </trkpt>
      <trkpt lat="44.06712" lon="6.49481">
        <ele>1486.3</ele>
        <time>2020-04-09T08:34:10Z</time>
      </trkpt>
      <trkpt lat="44.06764" lon="6.49536">
        <ele>1491.6</ele>
        <time>2020-04-09T08:34:10Z</time>
      </trkpt>
      <trkpt lat="44.06934" lon="6.49618">
        <ele>1452.3</ele>
        <time>2020-04-09T08:34:10Z</time>
      </trkpt>
      <trkpt lat="44.06986" lon="6.49674">
        <ele>1464.4</ele>
        <time>2020-04-09T08:34:10Z</time>
      </trkpt>
      <trkpt lat="44.07066" lon="6.49892">
        <ele>1481.9</ele>
        <time>2020-04-09T08:34:10Z</time>
      </trkpt>
      <trkpt lat="44.07109" lon="6.50193">
        <ele>1449.2</ele>
        <time>2020-04-09T08:34:10Z</time>
      </trkpt>
      <trkpt lat="44.0714" lon="6.50343">
        <ele>1447.5</ele>
        <time>2020-04-09T08:34:10Z</time>
      </trkpt>
      <trkpt lat="44.07193" lon="6.5039">
        <ele>1411.4</ele>
        <time>2020-04-09T08:34:10Z</time>
      </trkpt>
      <trkpt lat="44.07226" lon="6.50489">
        <ele>1407.8</ele>
        <time>2020-04-09T08:34:10Z</time>
      </trkpt>
      <trkpt lat="44.07245" lon="6.50562">
        <ele>1409.7</ele>
        <time>2020-04-09T08:34:10Z</time>
      </trkpt>
      <trkpt lat="44.07254" lon="6.50644">
        <ele>1385.1</ele>
        <time>2020-04-09T08:34:10Z</time>
      </trkpt>
      <trkpt lat="44.07279" lon="6.50716">
        <ele>1384.9</ele>
        <time>2020-04-09T08:34:10Z</time>
      </trkpt>
      <trkpt lat="44.07288" lon="6.50789">
        <ele>1392.2</ele>
        <time>2020-04-09T08:34:10Z</time>
      </trkpt>
      <trkpt lat="44.07319" lon="6.50867">
        <ele>1396.2</ele>
        <time>2020-04-09T08:34:10Z</time>
      </trkpt>
      <trkpt lat="44.07424" lon="6.50978">
        <ele>1351.4</ele>
        <time>2020-04-09T08:34:10Z</time>
      </trkpt>
      <trkpt lat="44.07476" lon="6.51">
        <ele>1343.5</ele>
        <time>2020-04-09T08:34:10Z</time>
      </trkpt>
      <trkpt lat="44.07526" lon="6.51073">
        <ele>1345</ele>
        <time>2020-04-09T08:34:10Z</time>
      </trkpt>
      <trkpt lat="44.0755" lon="6.51146">
        <ele>1346.2</ele>
        <time>2020-04-09T08:34:10Z</time>
      </trkpt>
      <trkpt lat="44.07587" lon="6.51219">
        <ele>1332.7</ele>
        <time>2020-04-09T08:34:10Z</time>
      </trkpt>
      <trkpt lat="44.0764" lon="6.51227">
        <ele>1327.4</ele>
        <time>2020-04-09T08:34:10Z</time>
      </trkpt>
      <trkpt lat="44.07692" lon="6.51206">
        <ele>1314.9</ele>
        <time>2020-04-09T08:34:10Z</time>
      </trkpt>
      <trkpt lat="44.07698" lon="6.51133">
        <ele>1313</ele>
        <time>2020-04-09T08:34:10Z</time>
      </trkpt>
      <trkpt lat="44.0767" lon="6.5106">
        <ele>1308</ele>
        <time>2020-04-09T08:34:10Z</time>
      </trkpt>
      <trkpt lat="44.07714" lon="6.50987">
        <ele>1299.1</ele>
        <time>2020-04-09T08:34:10Z</time>
      </trkpt>
      <trkpt lat="44.0772" lon="6.51064">
        <ele>1306.8</ele>
        <time>2020-04-09T08:34:10Z</time>
      </trkpt>
      <trkpt lat="44.07772" lon="6.51077">
        <ele>1301.7</ele>
        <time>2020-04-09T08:34:10Z</time>
      </trkpt>
      <trkpt lat="44.07825" lon="6.51013">
        <ele>1291.7</ele>
        <time>2020-04-09T08:34:10Z</time>
      </trkpt>
      <trkpt lat="44.07852" lon="6.5094">
        <ele>1281.1</ele>
        <time>2020-04-09T08:34:10Z</time>
      </trkpt>
      <trkpt lat="44.07862" lon="6.50867">
        <ele>1270</ele>
        <time>2020-04-09T08:34:10Z</time>
      </trkpt>
      <trkpt lat="44.07914" lon="6.50854">
        <ele>1264.5</ele>
        <time>2020-04-09T08:34:10Z</time>
      </trkpt>
      <trkpt lat="44.07969" lon="6.5088">
        <ele>1258.9</ele>
        <time>2020-04-09T08:34:10Z</time>
      </trkpt>
      <trkpt lat="44.08022" lon="6.50862">
        <ele>1243.6</ele>
        <time>2020-04-09T08:34:10Z</time>
      </trkpt>
      <trkpt lat="44.08074" lon="6.50927">
        <ele>1244.5</ele>
        <time>2020-04-09T08:34:10Z</time>
      </trkpt>
      <trkpt lat="44.08065" lon="6.51">
        <ele>1246.4</ele>
        <time>2020-04-09T08:34:10Z</time>
      </trkpt>
      <trkpt lat="44.08059" lon="6.51146">
        <ele>1239.1</ele>
        <time>2020-04-09T08:34:10Z</time>
      </trkpt>
      <trkpt lat="44.08093" lon="6.51219">
        <ele>1221.6</ele>
        <time>2020-04-09T08:34:10Z</time>
      </trkpt>
      <trkpt lat="44.08114" lon="6.51292">
        <ele>1213.5</ele>
        <time>2020-04-09T08:34:10Z</time>
      </trkpt>
      <trkpt lat="44.08173" lon="6.51244">
        <ele>1209.2</ele>
        <time>2020-04-09T08:34:10Z</time>
      </trkpt>
      <trkpt lat="44.08232" lon="6.513">
        <ele>1201.8</ele>
        <time>2020-04-09T08:34:10Z</time>
      </trkpt>
      <trkpt lat="44.08284" lon="6.51326">
        <ele>1192.9</ele>
        <time>2020-04-09T08:34:10Z</time>
      </trkpt>
      <trkpt lat="44.08336" lon="6.51322">
        <ele>1183</ele>
        <time>2020-04-09T08:34:10Z</time>
      </trkpt>
      <trkpt lat="44.08389" lon="6.51292">
        <ele>1178.1</ele>
        <time>2020-04-09T08:34:10Z</time>
      </trkpt>
      <trkpt lat="44.08441" lon="6.51236">
        <ele>1167.2</ele>
        <time>2020-04-09T08:34:10Z</time>
      </trkpt>
      <trkpt lat="44.08494" lon="6.51219">
        <ele>1163.8</ele>
        <time>2020-04-09T08:34:10Z</time>
      </trkpt>
      <trkpt lat="44.08546" lon="6.51236">
        <ele>1157</ele>
        <time>2020-04-09T08:34:10Z</time>
      </trkpt>
      <trkpt lat="44.08598" lon="6.5124">
        <ele>1151.8</ele>
        <time>2020-04-09T08:34:10Z</time>
      </trkpt>
      <trkpt lat="44.08651" lon="6.51206">
        <ele>1146.5</ele>
        <time>2020-04-09T08:34:10Z</time>
      </trkpt>
      <trkpt lat="44.08703" lon="6.51137">
        <ele>1135.1</ele>
        <time>2020-04-09T08:34:10Z</time>
      </trkpt>
      <trkpt lat="44.08746" lon="6.51064">
        <ele>1126.6</ele>
        <time>2020-04-09T08:34:10Z</time>
      </trkpt>
      <trkpt lat="44.08805" lon="6.51021">
        <ele>1122.9</ele>
        <time>2020-04-09T08:34:10Z</time>
      </trkpt>
      <trkpt lat="44.08857" lon="6.51064">
        <ele>1122.7</ele>
        <time>2020-04-09T08:34:10Z</time>
      </trkpt>
      <trkpt lat="44.08907" lon="6.5136">
        <ele>1130.4</ele>
        <time>2020-04-09T08:34:10Z</time>
      </trkpt>
      <trkpt lat="44.08928" lon="6.51442">
        <ele>1132</ele>
        <time>2020-04-09T08:34:10Z</time>
      </trkpt>
      <trkpt lat="44.08931" lon="6.51523">
        <ele>1132.9</ele>
        <time>2020-04-09T08:34:10Z</time>
      </trkpt>
      <trkpt lat="44.08916" lon="6.51605">
        <ele>1134.2</ele>
        <time>2020-04-09T08:34:10Z</time>
      </trkpt>
      <trkpt lat="44.08968" lon="6.51841">
        <ele>1145.8</ele>
        <time>2020-04-09T08:34:10Z</time>
      </trkpt>
      <trkpt lat="44.08974" lon="6.51918">
        <ele>1149.2</ele>
        <time>2020-04-09T08:34:10Z</time>
      </trkpt>
      <trkpt lat="44.09008" lon="6.52064">
        <ele>1154.1</ele>
        <time>2020-04-09T08:34:10Z</time>
      </trkpt>
      <trkpt lat="44.0903" lon="6.5221">
        <ele>1150.2</ele>
        <time>2020-04-09T08:34:10Z</time>
      </trkpt>
      <trkpt lat="44.09033" lon="6.52467">
        <ele>1151.8</ele>
        <time>2020-04-09T08:34:10Z</time>
      </trkpt>
      <trkpt lat="44.08978" lon="6.52712">
        <ele>1150.8</ele>
        <time>2020-04-09T08:34:10Z</time>
      </trkpt>
      <trkpt lat="44.08978" lon="6.52785">
        <ele>1152.9</ele>
        <time>2020-04-09T08:34:10Z</time>
      </trkpt>
      <trkpt lat="44.08978" lon="6.52867">
        <ele>1155</ele>
        <time>2020-04-09T08:34:10Z</time>
      </trkpt>
      <trkpt lat="44.09015" lon="6.53085">
        <ele>1158.9</ele>
        <time>2020-04-09T08:34:10Z</time>
      </trkpt>
      <trkpt lat="44.09079" lon="6.53231">
        <ele>1159.3</ele>
        <time>2020-04-09T08:34:10Z</time>
      </trkpt>
      <trkpt lat="44.09082" lon="6.53304">
        <ele>1158.8</ele>
        <time>2020-04-09T08:34:10Z</time>
      </trkpt>
      <trkpt lat="44.0903" lon="6.53313">
        <ele>1158.4</ele>
        <time>2020-04-09T08:34:10Z</time>
      </trkpt>
      <trkpt lat="44.08978" lon="6.53347">
        <ele>1160</ele>
        <time>2020-04-09T08:34:10Z</time>
      </trkpt>
      <trkpt lat="44.08925" lon="6.53399">
        <ele>1163.3</ele>
        <time>2020-04-09T08:34:10Z</time>
      </trkpt>
      <trkpt lat="44.08891" lon="6.53476">
        <ele>1174.8</ele>
        <time>2020-04-09T08:34:10Z</time>
      </trkpt>
      <trkpt lat="44.08916" lon="6.53721">
        <ele>1169.3</ele>
        <time>2020-04-09T08:34:10Z</time>
      </trkpt>
      <trkpt lat="44.08937" lon="6.53798">
        <ele>1161</ele>
        <time>2020-04-09T08:34:10Z</time>
      </trkpt>
      <trkpt lat="44.0899" lon="6.53806">
        <ele>1159.3</ele>
        <time>2020-04-09T08:34:10Z</time>
      </trkpt>
      <trkpt lat="44.09042" lon="6.53746">
        <ele>1159</ele>
        <time>2020-04-09T08:34:10Z</time>
      </trkpt>
      <trkpt lat="44.09095" lon="6.53733">
        <ele>1160.2</ele>
        <time>2020-04-09T08:34:10Z</time>
      </trkpt>
      <trkpt lat="44.09159" lon="6.53879">
        <ele>1159.2</ele>
        <time>2020-04-09T08:34:10Z</time>
      </trkpt>
      <trkpt lat="44.09178" lon="6.53961">
        <ele>1168.3</ele>
        <time>2020-04-09T08:34:10Z</time>
      </trkpt>
      <trkpt lat="44.09184" lon="6.54038">
        <ele>1169.7</ele>
        <time>2020-04-09T08:34:10Z</time>
      </trkpt>
      <trkpt lat="44.09172" lon="6.54278">
        <ele>1168.3</ele>
        <time>2020-04-09T08:34:10Z</time>
      </trkpt>
      <trkpt lat="44.09162" lon="6.54356">
        <ele>1155.2</ele>
        <time>2020-04-09T08:34:10Z</time>
      </trkpt>
      <trkpt lat="44.09166" lon="6.54463">
        <ele>1149.4</ele>
        <time>2020-04-09T08:34:10Z</time>
      </trkpt>
      <trkpt lat="44.09199" lon="6.54536">
        <ele>1154.7</ele>
        <time>2020-04-09T08:34:10Z</time>
      </trkpt>
      <trkpt lat="44.09347" lon="6.54759">
        <ele>1157.3</ele>
        <time>2020-04-09T08:34:10Z</time>
      </trkpt>
      <trkpt lat="44.09483" lon="6.55085">
        <ele>1148.5</ele>
        <time>2020-04-09T08:34:10Z</time>
      </trkpt>
      <trkpt lat="44.09529" lon="6.55162">
        <ele>1151.8</ele>
        <time>2020-04-09T08:34:10Z</time>
      </trkpt>
      <trkpt lat="44.09594" lon="6.55321">
        <ele>1154</ele>
        <time>2020-04-09T08:34:10Z</time>
      </trkpt>
      <trkpt lat="44.09634" lon="6.55394">
        <ele>1150</ele>
        <time>2020-04-09T08:34:10Z</time>
      </trkpt>
      <trkpt lat="44.09665" lon="6.55467">
        <ele>1145.7</ele>
        <time>2020-04-09T08:34:10Z</time>
      </trkpt>
      <trkpt lat="44.09665" lon="6.55467">
        <ele>1145.7</ele>
        <time>2020-04-09T08:34:10Z</time>
      </trkpt>
    </trkseg>
  </trk>
</gpx>